Location: Newark
(40.4667°N, 5.6000°W)
Time: 23:55:56
(UTC+00:00)

A-11 Canister half - Pass Details

Date: 24 November 2019
Orbit: 1526 x 1683 km, 47.3° (Epoch: 07 December)

Event Time Altitude Azimuth Distance (km) Brightness Sun altitude
Rises 19:05:24 0° 291° (WNW) 4,786 12.6 -23.7°
Reaches altitude 10° 19:09:48 10° 274° (W) 3,769 12.1 -24.5°
Maximum altitude 19:15:33 18° 236° (SW) 3,142 11.3 -25.6°
Drops below altitude 10° 19:21:15 10° 197° (SSW) 3,700 11.2 -26.7°
Sets 19:25:34 0° 180° (S) 4,666 11.6 -27.5°
